Location: Unspecified
(40.7945°N, 0.0000°E)
Time: 06:23:58
(UTC+00:00)

Altair - Pass Details

Date: 26 January 2021
Orbit: 1501 x 1682 km, 47.2° (Epoch: 28 February)

Event Time Altitude Azimuth Distance (km) Brightness Sun altitude
Rises 06:11:21 0° 260° (W) 4,872 - -12.3°
Reaches altitude 10° 06:14:31 10° 264° (W) 3,904 - -11.7°
Exits shadow 06:14:44 11° 264° (W) 3,840 9.0 -11.7°
Maximum altitude 06:24:33 67° 346° (NNW) 1,798 7.8 -9.9°
Drops below altitude 10° 06:34:42 10° 69° (ENE) 3,942 10.5 -8.0°
Sets 06:37:55 0° 72° (ENE) 4,921 11.1 -7.4°
